Time,TemperatureF,DewpointF,PressureIn,WindDirection,WindDirectionDegrees,WindSpeedMPH,WindSpeedGustMPH,Humidity,HourlyPrecipIn,Conditions,Clouds,dailyrainin,SolarRadiationWatts/m^2,SoftwareType,DateUTC
2013-05-24 00:09:00,62.9,62.0,29.86,ENE,71,1.0,10.0,97,0.07,,,0.31,0,weatherlink.com 1.10,2013-05-24 04:09:00,
2013-05-24 00:24:00,62.7,62.0,29.85,North,11,3.0,9.0,97,0.05,,,0.32,0,weatherlink.com 1.10,2013-05-24 04:24:00,
2013-05-24 00:39:00,62.6,62.0,29.84,East,94,5.0,7.0,98,0.03,,,0.32,0,weatherlink.com 1.10,2013-05-24 04:39:00,
2013-05-24 00:54:00,62.5,62.0,29.83,West,269,4.0,7.0,98,0.03,,,0.34,0,weatherlink.com 1.10,2013-05-24 04:54:00,
2013-05-24 01:09:00,62.9,62.0,29.82,East,97,0.0,4.0,98,0.06,,,0.37,0,weatherlink.com 1.10,2013-05-24 05:09:00,
2013-05-24 01:24:00,63.1,63.0,29.82,SSW,205,0.0,10.0,98,0.05,,,0.37,0,weatherlink.com 1.10,2013-05-24 05:24:00,
2013-05-24 01:39:00,63.0,63.0,29.81,WSW,249,0.0,7.0,98,0.04,,,0.37,0,weatherlink.com 1.10,2013-05-24 05:39:00,
2013-05-24 01:54:00,62.4,62.0,29.80,ESE,121,2.0,6.0,98,0.03,,,0.37,0,weatherlink.com 1.10,2013-05-24 05:54:00,
2013-05-24 02:09:00,62.3,62.0,29.79,North,360,0.0,4.0,98,0.01,,,0.38,0,weatherlink.com 1.10,2013-05-24 06:09:00,
2013-05-24 02:25:00,62.3,62.0,29.78,ESE,123,1.0,7.0,98,0.01,,,0.38,0,weatherlink.com 1.10,2013-05-24 06:25:00,
2013-05-24 02:40:00,62.3,62.0,29.77,NNE,25,0.0,6.0,98,0.01,,,0.38,0,weatherlink.com 1.10,2013-05-24 06:40:00,
2013-05-24 02:55:00,62.4,62.0,29.76,SE,128,1.0,6.0,98,0.02,,,0.39,0,weatherlink.com 1.10,2013-05-24 06:55:00,
2013-05-24 03:10:00,62.5,62.0,29.74,WNW,300,1.0,5.0,98,0.01,,,0.39,0,weatherlink.com 1.10,2013-05-24 07:10:00,
2013-05-24 03:25:00,62.8,62.0,29.74,WNW,290,2.0,3.0,98,0.04,,,0.42,0,weatherlink.com 1.10,2013-05-24 07:25:00,
2013-05-24 03:40:00,62.8,63.0,29.73,NNE,32,0.0,2.0,99,0.07,,,0.45,0,weatherlink.com 1.10,2013-05-24 07:40:00,
2013-05-24 03:55:00,62.9,63.0,29.73,East,88,1.0,4.0,99,0.07,,,0.46,0,weatherlink.com 1.10,2013-05-24 07:55:00,
2013-05-24 04:10:00,63.0,63.0,29.73,NE,49,0.0,3.0,99,0.08,,,0.47,0,weatherlink.com 1.10,2013-05-24 08:10:00,
2013-05-24 04:25:00,63.0,63.0,29.73,WNW,291,0.0,4.0,99,0.07,,,0.49,0,weatherlink.com 1.10,2013-05-24 08:25:00,
2013-05-24 04:40:00,63.0,63.0,29.73,West,271,2.0,5.0,99,0.05,,,0.50,0,weatherlink.com 1.10,2013-05-24 08:40:00,
2013-05-24 04:55:00,63.0,63.0,29.71,West,275,1.0,5.0,99,0.04,,,0.50,0,weatherlink.com 1.10,2013-05-24 08:55:00,
2013-05-24 05:10:00,63.0,63.0,29.71,West,273,2.0,5.0,99,0.03,,,0.50,0,weatherlink.com 1.10,2013-05-24 09:10:00,
2013-05-24 05:25:00,62.9,63.0,29.72,West,267,2.0,9.0,99,0.01,,,0.50,0,weatherlink.com 1.10,2013-05-24 09:25:00,
2013-05-24 05:40:00,62.7,62.0,29.72,SW,234,0.0,4.0,98,0.00,,,0.50,0,weatherlink.com 1.10,2013-05-24 09:40:00,
2013-05-24 05:55:00,62.6,62.0,29.72,WNW,284,1.0,4.0,98,0.00,,,0.50,0,weatherlink.com 1.10,2013-05-24 09:55:00,
2013-05-24 06:10:00,62.4,62.0,29.73,West,270,2.0,6.0,98,0.00,,,0.50,7,weatherlink.com 1.10,2013-05-24 10:10:00,
2013-05-24 06:25:00,62.3,62.0,29.73,West,262,5.0,5.0,98,0.00,,,0.50,11,weatherlink.com 1.10,2013-05-24 10:25:00,
2013-05-24 06:40:00,62.3,62.0,29.73,SSW,193,0.0,6.0,99,0.00,,,0.50,14,weatherlink.com 1.10,2013-05-24 10:40:00,
2013-05-24 06:55:00,62.2,62.0,29.74,West,264,3.0,6.0,98,0.00,,,0.50,11,weatherlink.com 1.10,2013-05-24 10:55:00,
2013-05-24 07:10:00,62.1,62.0,29.75,WSW,246,1.0,5.0,98,0.00,,,0.50,19,weatherlink.com 1.10,2013-05-24 11:10:00,
2013-05-24 07:25:00,62.0,62.0,29.75,West,265,0.0,6.0,98,0.00,,,0.50,19,weatherlink.com 1.10,2013-05-24 11:25:00,
2013-05-24 07:40:00,62.0,62.0,29.76,West,261,2.0,3.0,98,0.00,,,0.50,26,weatherlink.com 1.10,2013-05-24 11:40:00,
2013-05-24 07:55:00,62.2,62.0,29.77,West,264,3.0,5.0,98,0.01,,,0.51,23,weatherlink.com 1.10,2013-05-24 11:55:00,
2013-05-24 08:10:00,62.3,62.0,29.77,WSW,248,3.0,4.0,99,0.02,,,0.52,32,weatherlink.com 1.10,2013-05-24 12:10:00,
2013-05-24 08:25:00,62.5,62.0,29.77,WSW,248,0.0,3.0,99,0.02,,,0.52,49,weatherlink.com 1.10,2013-05-24 12:25:00,
2013-05-24 08:40:00,62.8,63.0,29.77,WSW,248,0.0,2.0,99,0.02,,,0.52,63,weatherlink.com 1.10,2013-05-24 12:40:00,
2013-05-24 08:55:00,63.4,63.0,29.78,WSW,248,2.0,2.0,99,0.01,,,0.52,79,weatherlink.com 1.10,2013-05-24 12:55:00,
2013-05-24 09:10:00,63.6,63.0,29.77,WSW,248,0.0,3.0,99,0.00,,,0.52,69,weatherlink.com 1.10,2013-05-24 13:10:00,
2013-05-24 09:25:00,64.0,64.0,29.78,West,262,0.0,3.0,99,0.01,,,0.53,127,weatherlink.com 1.10,2013-05-24 13:25:00,
2013-05-24 09:40:00,64.4,64.0,29.78,WSW,255,2.0,3.0,99,0.01,,,0.53,120,weatherlink.com 1.10,2013-05-24 13:40:00,
2013-05-24 09:55:00,64.7,64.0,29.78,WSW,253,0.0,1.0,99,0.01,,,0.53,146,weatherlink.com 1.10,2013-05-24 13:55:00,
2013-05-24 10:10:00,65.3,65.0,29.78,WNW,300,1.0,2.0,99,0.01,,,0.53,190,weatherlink.com 1.10,2013-05-24 14:10:00,
2013-05-24 10:25:00,65.6,65.0,29.77,WNW,298,0.0,2.0,99,0.00,,,0.53,139,weatherlink.com 1.10,2013-05-24 14:25:00,
2013-05-24 10:40:00,65.8,65.0,29.78,WNW,298,0.0,1.0,98,0.00,,,0.53,121,weatherlink.com 1.10,2013-05-24 14:40:00,
2013-05-24 10:55:00,66.0,66.0,29.77,WNW,298,0.0,1.0,98,0.00,,,0.53,144,weatherlink.com 1.10,2013-05-24 14:55:00,
2013-05-24 11:10:00,66.4,66.0,29.77,WNW,286,0.0,2.0,97,0.00,,,0.53,185,weatherlink.com 1.10,2013-05-24 15:10:00,
2013-05-24 11:26:00,67.2,67.0,29.77,WNW,286,0.0,1.0,98,0.00,,,0.53,165,weatherlink.com 1.10,2013-05-24 15:26:00,
2013-05-24 11:40:00,67.4,66.0,29.78,West,275,1.0,4.0,95,0.00,,,0.53,153,weatherlink.com 1.10,2013-05-24 15:40:00,
2013-05-24 11:55:00,67.9,67.0,29.77,West,271,0.0,3.0,95,0.00,,,0.53,285,weatherlink.com 1.10,2013-05-24 15:55:00,
2013-05-24 12:10:00,69.2,68.0,29.77,NW,317,0.0,1.0,96,0.00,,,0.53,436,weatherlink.com 1.10,2013-05-24 16:10:00,
2013-05-24 12:26:00,70.4,67.0,29.77,ENE,74,0.0,3.0,89,0.00,,,0.53,237,weatherlink.com 1.10,2013-05-24 16:26:00,
2013-05-24 12:41:00,70.7,67.0,29.76,WSW,255,1.0,3.0,87,0.00,,,0.53,346,weatherlink.com 1.10,2013-05-24 16:41:00,
2013-05-24 12:56:00,72.1,68.0,29.77,WNW,291,0.0,5.0,87,0.00,,,0.53,309,weatherlink.com 1.10,2013-05-24 16:56:00,
2013-05-24 13:11:00,73.7,69.0,29.76,West,271,0.0,3.0,86,0.00,,,0.53,722,weatherlink.com 1.10,2013-05-24 17:11:00,
2013-05-24 13:26:00,73.9,69.0,29.76,ENE,57,1.0,5.0,84,0.00,,,0.53,589,weatherlink.com 1.10,2013-05-24 17:26:00,
2013-05-24 13:41:00,72.8,67.0,29.76,ENE,63,1.0,2.0,81,0.00,,,0.53,81,weatherlink.com 1.10,2013-05-24 17:41:00,
2013-05-24 13:56:00,71.1,66.0,29.76,WSW,246,1.0,5.0,84,0.00,,,0.53,39,weatherlink.com 1.10,2013-05-24 17:56:00,
2013-05-24 14:11:00,69.8,67.0,29.76,North,355,0.0,2.0,91,0.01,,,0.54,178,weatherlink.com 1.10,2013-05-24 18:11:00,
2013-05-24 14:26:00,69.8,67.0,29.76,ENE,74,0.0,2.0,92,0.01,,,0.54,172,weatherlink.com 1.10,2013-05-24 18:26:00,
2013-05-24 14:41:00,69.2,65.0,29.76,West,280,0.0,5.0,86,0.01,,,0.54,72,weatherlink.com 1.10,2013-05-24 18:41:00,
2013-05-24 14:56:00,67.4,64.0,29.76,West,269,0.0,4.0,88,0.01,,,0.54,105,weatherlink.com 1.10,2013-05-24 18:56:00,
2013-05-24 15:11:00,66.1,62.0,29.77,SSE,155,0.0,5.0,86,0.00,,,0.54,97,weatherlink.com 1.10,2013-05-24 19:11:00,
2013-05-24 15:26:00,65.1,61.0,29.77,NW,317,2.0,6.0,86,0.00,,,0.54,185,weatherlink.com 1.10,2013-05-24 19:26:00,
2013-05-24 15:44:00,65.1,62.0,29.77,ESE,114,0.0,4.0,88,0.00,,,0.54,137,weatherlink.com 1.10,2013-05-24 19:44:00,
2013-05-24 15:57:00,64.3,59.0,29.77,NW,313,1.0,5.0,84,0.00,,,0.54,77,weatherlink.com 1.10,2013-05-24 19:57:00,
2013-05-24 16:12:00,62.9,59.0,29.77,North,5,0.0,3.0,87,0.00,,,0.54,62,weatherlink.com 1.10,2013-05-24 20:12:00,
2013-05-24 16:27:00,62.2,59.0,29.77,NE,53,0.0,4.0,89,0.00,,,0.54,60,weatherlink.com 1.10,2013-05-24 20:27:00,
2013-05-24 16:42:00,61.8,59.0,29.79,NW,317,0.0,5.0,89,0.00,,,0.54,67,weatherlink.com 1.10,2013-05-24 20:42:00,
2013-05-24 16:57:00,60.9,57.0,29.79,SSW,211,1.0,4.0,88,0.00,,,0.54,49,weatherlink.com 1.10,2013-05-24 20:57:00,
2013-05-24 17:12:00,60.5,58.0,29.79,West,278,1.0,3.0,90,0.00,,,0.54,105,weatherlink.com 1.10,2013-05-24 21:12:00,
2013-05-24 17:27:00,60.7,57.0,29.79,NE,49,0.0,3.0,86,0.00,,,0.54,98,weatherlink.com 1.10,2013-05-24 21:27:00,
2013-05-24 17:42:00,60.1,56.0,29.78,SE,139,3.0,8.0,85,0.00,,,0.54,86,weatherlink.com 1.10,2013-05-24 21:42:00,
2013-05-24 17:57:00,59.2,55.0,29.79,ESE,103,0.0,5.0,86,0.00,,,0.54,65,weatherlink.com 1.10,2013-05-24 21:57:00,
2013-05-24 18:12:00,58.8,55.0,29.79,NW,310,0.0,5.0,86,0.00,,,0.54,40,weatherlink.com 1.10,2013-05-24 22:12:00,
2013-05-24 18:26:00,58.4,54.0,29.80,NNW,336,0.0,3.0,86,0.00,,,0.54,33,weatherlink.com 1.10,2013-05-24 22:26:00,
2013-05-24 18:42:00,57.7,54.0,29.81,North,10,1.0,6.0,86,0.00,,,0.54,14,weatherlink.com 1.10,2013-05-24 22:42:00,
2013-05-24 18:57:00,56.9,53.0,29.81,ESE,115,0.0,5.0,87,0.00,,,0.54,14,weatherlink.com 1.10,2013-05-24 22:57:00,
2013-05-24 19:12:00,56.6,53.0,29.82,ESE,109,0.0,4.0,87,0.00,,,0.54,7,weatherlink.com 1.10,2013-05-24 23:12:00,
2013-05-24 19:27:00,56.2,52.0,29.82,NNE,21,0.0,4.0,86,0.00,,,0.00,12,weatherlink.com 1.10,2013-05-24 23:27:00,
2013-05-24 19:42:00,55.8,52.0,29.82,NW,323,1.0,5.0,86,0.00,,,0.00,7,weatherlink.com 1.10,2013-05-24 23:42:00,
2013-05-24 19:57:00,55.4,51.0,29.82,East,80,0.0,4.0,86,0.00,,,0.00,0,weatherlink.com 1.10,2013-05-24 23:57:00,
2013-05-24 20:12:00,55.0,51.0,29.82,WNW,296,4.0,5.0,86,0.00,,,0.00,0,weatherlink.com 1.10,2013-05-25 00:12:00,
2013-05-24 20:27:00,54.5,50.0,29.83,SSW,205,2.0,7.0,86,0.00,,,0.00,0,weatherlink.com 1.10,2013-05-25 00:27:00,
2013-05-24 20:42:00,54.0,50.0,29.84,NNW,336,0.0,8.0,87,0.00,,,0.00,0,weatherlink.com 1.10,2013-05-25 00:42:00,
2013-05-24 20:57:00,52.9,50.0,29.84,WNW,291,3.0,7.0,88,0.00,,,0.00,0,weatherlink.com 1.10,2013-05-25 00:57:00,
2013-05-24 21:12:00,51.9,49.0,29.85,WSW,250,0.0,5.0,91,0.00,,,0.00,0,weatherlink.com 1.10,2013-05-25 01:12:00,
2013-05-24 21:27:00,51.3,49.0,29.86,South,180,0.0,5.0,92,0.00,,,0.00,0,weatherlink.com 1.10,2013-05-25 01:27:00,
2013-05-24 21:43:00,50.5,49.0,29.87,North,11,1.0,7.0,93,0.01,,,0.01,0,weatherlink.com 1.10,2013-05-25 01:43:00,
2013-05-24 21:58:00,49.9,49.0,29.86,WNW,300,0.0,5.0,95,0.04,,,0.04,0,weatherlink.com 1.10,2013-05-25 01:58:00,
2013-05-24 22:13:00,49.4,48.0,29.87,WSW,240,5.0,6.0,95,0.04,,,0.04,0,weatherlink.com 1.10,2013-05-25 02:13:00,
2013-05-24 22:28:00,49.1,48.0,29.88,North,355,0.0,3.0,95,0.08,,,0.08,0,weatherlink.com 1.10,2013-05-25 02:28:00,
2013-05-24 22:43:00,48.7,48.0,29.88,SSE,147,3.0,4.0,96,0.10,,,0.11,0,weatherlink.com 1.10,2013-05-25 02:43:00,
2013-05-24 22:58:00,48.4,47.0,29.87,North,10,0.0,5.0,96,0.08,,,0.12,0,weatherlink.com 1.10,2013-05-25 02:58:00,
2013-05-24 23:13:00,48.1,47.0,29.88,ENE,57,2.0,3.0,96,0.08,,,0.12,0,weatherlink.com 1.10,2013-05-25 03:13:00,
2013-05-24 23:28:00,47.7,47.0,29.85,NE,47,2.0,9.0,96,0.05,,,0.13,0,weatherlink.com 1.10,2013-05-25 03:28:00,
2013-05-24 23:43:00,47.5,47.0,29.85,NNW,327,3.0,5.0,96,0.02,,,0.13,0,weatherlink.com 1.10,2013-05-25 03:43:00,
2013-05-24 23:58:00,47.3,46.0,29.85,ESE,115,0.0,6.0,96,0.01,,,0.13,0,weatherlink.com 1.10,2013-05-25 03:58:00,